Regional Weather Roundup
Issued by NWS

Home | Current Version | Previous Version | Graphics & Text | Print | Product List | Glossary On
Versions: 1 2 3 4 5 6 7 8 9 10 11 12 13 14 15 16 17 18 19 20 21 22 23 24 25 26 27 28 29 30 31 32 33 34 35 36 37 38 39 40 41 42 43 44 45 46 47 48 49 50
517
ASUS45 KCYS 121710
RWRWY

WYOMING REGIONAL WEATHER ROUNDUP
NATIONAL WEATHER SERVICE CHEYENNE WY
1000 AM MST TUE DEC 12 2017

NOTE:  "FAIR" INDICATES FEW OR NO CLOUDS BELOW 12,000 FEET
WITH NO SIGNIFICANT WEATHER AND/OR OBSTRUCTIONS TO VISIBILITY.

WYZ001-121800-
YELLOWSTONE NATIONAL PARK

CITY           SKY/WX    TMP DP  RH WIND       PRES   REMARKS
LK YELLOWSTONE   N/A     15  15 100 CALM      30.54F
W YELLOWSTONE  NOT AVBL

$$
WYZ002>013-054>058-071-098>099-121800-
NORTHERN WYOMING

CITY           SKY/WX    TMP DP  RH WIND       PRES   REMARKS
JACKSON        FAIR      23  15  71 CALM      30.59R
CODY           FAIR      35  18  49 S7        30.30F WCI  29
GREYBULL       FAIR      21  13  71 CALM      30.35S
WORLAND        FAIR      29  21  72 SW6       30.34F WCI  23
SHERIDAN       FAIR      44  27  51 CALM      30.18F
BUFFALO        FAIR      57  18  21 CALM      30.21F
GILLETTE       FAIR      52  19  27 SW12      30.20S
HULETT         FAIR      43  19  39 SW12      30.20S
NEWCASTLE      FAIR      39  14  35 CALM      30.24S

$$
WYZ014>020-022>026-101>103-121800-
CENTRAL WYOMING

CITY           SKY/WX    TMP DP  RH WIND       PRES   REMARKS
BIG PINEY      FAIR      30  10  43 CALM      30.50S
PINEDALE       FAIR      30  14  51 CALM      30.50S
DUBOIS         FAIR      41   1  19 NW15      30.44S
LANDER         FAIR      26  19  74 SE6       30.36F WCI  19
RIVERTON       FAIR      25  19  78 SE3       30.38S
CASPER         FAIR      41  16  36 SW26G35   30.33S
DOUGLAS        FAIR      45  27  49 NW6       30.28F

$$
WYZ021-027>030-104>119-121800-
SOUTHERN WYOMING

CITY           SKY/WX    TMP DP  RH WIND       PRES   REMARKS
EVANSTON       FAIR      37  12  35 SW5       30.53R WCI  33
FORT BRIDGER   FAIR      45  12  26 W8        30.54R
ROCK SPRINGS   FAIR      35   9  33 CALM      30.49S
DIXON          FAIR      21  12  68 CALM      30.55S
RAWLINS        FAIR      35  15  44 S5        30.48R WCI  31
SARATOGA       FAIR      34  19  55 S10       30.49S WCI  26
LARAMIE        FAIR      46  17  31 W8        30.40R
CHEYENNE       FAIR      55  15  20 W9        30.33R
TORRINGTON     FAIR      41  21  44 NW8       30.25F
PINE BLUFFS    FAIR      50  18  27 SW8       30.30F

$$




USA.gov is the U.S. government's official web portal to all federal, state and local government web resources and services.